Weather History for Staunton, VA

Change the Weather History Date:

Wednesday, February 13, 2013

  Actual Average Record
Temperature  
Mean Temperature 38 °F -  
Max Temperature 47 °F 47 °F 87 °F (1997)
Min Temperature 31 °F 26 °F 10 °F (2006)
Degree Days  
Heating Degree Days 26    
Moisture  
Dew Point 29 °F    
Average Humidity 72    
Maximum Humidity 94    
Minimum Humidity 39    
Precipitation  
Precipitation 0.05 in - - ()
Sea Level Pressure  
Sea Level Pressure 29.77 in    
Wind  
Wind Speed 1 mph (North)    
Max Wind Speed 9 mph    
Max Gust Speed -    
Visibility 7 miles    
Events Fog , Rain , Snow    
Averages and records for this station are not official NWS values.
T = Trace of Precipitation, MM = Missing Value Source: NWS Daily Summary

Daily Weather History Graph

Daily Weather History Graph

Search for Another Location

Airport:

Trip Planner

Search our weather history database for the weather conditions in past years. The results will help you decide how hot, cold, wet, or windy it might be!

Date:

Astronomy

Feb. 13, 2013 Rise Set
Actual Time 7:08 AM EST 5:52 PM EST
Civil Twilight 6:40 AM EST 6:19 PM EST
Nautical Twilight 6:09 AM EST 6:50 PM EST
Astronomical Twilight 5:39 AM EST 7:20 PM EST
Moon 8:40 AM EST (2/13) 9:48 PM EST (2/13)
Length of Visible Light 11h 38m
Length of Day
10h 44m
Waxing Crescent, 13% of the Moon is Illuminated
Feb 13
Waxing Crescent
Feb 17
First Quarter
Feb 25
Full
Mar 4
Last Quarter
Mar 11
New

Hourly Weather History & Observations

Time (EST) Temp. Windchill Dew Point Humidity Pressure Visibility Wind Dir Wind Speed Gust Speed Precip Events Conditions
12:15 AM 38.8 °F - 22.8 °F 53% 29.94 in 10.0 mi Calm Calm - N/A   Clear
12:35 AM 36.7 °F - 25.3 °F 64% 29.93 in 10.0 mi Calm Calm - N/A   Scattered Clouds
12:55 AM 36.3 °F - 24.6 °F 63% 29.92 in 10.0 mi Calm Calm - N/A   Scattered Clouds
1:15 AM 33.8 °F - 25.2 °F 71% 29.91 in 10.0 mi Calm Calm - N/A   Clear
1:35 AM 34.0 °F - 23.9 °F 67% 29.91 in 10.0 mi Calm Calm - N/A   Clear
1:55 AM 33.6 °F - 23.9 °F 68% 29.90 in 10.0 mi Calm Calm - N/A   Clear
2:15 AM 33.4 °F - 24.1 °F 69% 29.88 in 10.0 mi Calm Calm - N/A   Clear
2:35 AM 32.4 °F - 24.6 °F 73% 29.87 in 10.0 mi Calm Calm - N/A   Clear
2:55 AM 33.1 °F - 24.8 °F 72% 29.87 in 10.0 mi Calm Calm - N/A   Mostly Cloudy
3:15 AM 32.5 °F - 24.8 °F 73% 29.86 in 10.0 mi Calm Calm - N/A   Mostly Cloudy
3:35 AM 32.2 °F - 24.4 °F 73% 29.86 in 10.0 mi Calm Calm - N/A   Scattered Clouds
3:55 AM 31.8 °F - 24.8 °F 75% 29.86 in 10.0 mi Calm Calm - N/A   Mostly Cloudy
4:15 AM 32.2 °F - 26.2 °F 79% 29.86 in 10.0 mi Calm Calm - N/A   Overcast
4:35 AM 33.3 °F - 25.7 °F 74% 29.85 in 10.0 mi Calm Calm - N/A   Overcast
4:55 AM 33.6 °F - 26.2 °F 74% 29.85 in 10.0 mi Calm Calm - N/A   Overcast
5:15 AM 34.2 °F - 26.6 °F 74% 29.85 in 10.0 mi Calm Calm - N/A   Overcast
5:35 AM 34.7 °F - 26.8 °F 73% 29.84 in 10.0 mi Calm Calm - N/A   Overcast
5:55 AM 35.8 °F - 26.8 °F 70% 29.83 in 10.0 mi Calm Calm - N/A   Overcast
6:15 AM 35.8 °F - 27.3 °F 71% 29.82 in 10.0 mi Calm Calm - N/A   Overcast
6:35 AM 36.9 °F 34.3 °F 24.6 °F 61% 29.82 in 10.0 mi North 3.5 mph - N/A   Overcast
7:15 AM 36.0 °F - 26.8 °F 69% 29.83 in 10.0 mi Calm Calm - N/A   Overcast
7:35 AM 36.5 °F - 27.3 °F 69% 29.84 in 10.0 mi Calm Calm - N/A   Overcast
7:55 AM 36.7 °F - 28.2 °F 71% 29.83 in 10.0 mi Calm Calm - N/A   Overcast
8:15 AM 38.1 °F - 27.0 °F 64% 29.83 in 10.0 mi Calm Calm - N/A   Overcast
8:35 AM 39.2 °F 37.0 °F 24.8 °F 56% 29.83 in 10.0 mi North 3.5 mph - N/A   Overcast
8:55 AM 39.4 °F 37.2 °F 25.3 °F 57% 29.82 in 10.0 mi NE 3.5 mph - N/A   Overcast
9:15 AM 39.4 °F - 25.0 °F 56% 29.82 in 10.0 mi Calm Calm - N/A   Overcast
9:35 AM 40.3 °F - 24.4 °F 53% 29.81 in 10.0 mi Calm Calm - N/A   Overcast
9:55 AM 41.9 °F - 23.4 °F 48% 29.81 in 10.0 mi Calm Calm - N/A   Overcast
10:15 AM 42.8 °F - 23.5 °F 47% 29.81 in 10.0 mi Calm Calm - N/A   Overcast
10:35 AM 43.2 °F - 24.3 °F 47% 29.80 in 10.0 mi Calm Calm - N/A   Overcast
10:55 AM 43.7 °F - 25.0 °F 48% 29.79 in 10.0 mi Calm Calm - N/A   Overcast
11:15 AM 44.4 °F - 24.6 °F 46% 29.78 in 10.0 mi Calm Calm - N/A   Overcast
11:35 AM 45.5 °F - 25.0 °F 45% 29.76 in 10.0 mi Calm Calm - N/A   Overcast
11:55 AM 45.9 °F 44.6 °F 24.4 °F 43% 29.75 in 10.0 mi ENE 3.5 mph - N/A   Overcast
12:15 PM 46.0 °F - 23.7 °F 42% 29.74 in 10.0 mi Calm Calm - N/A   Overcast
12:35 PM 46.4 °F - 23.9 °F 41% 29.73 in 10.0 mi Calm Calm - N/A   Overcast
12:55 PM 46.9 °F - 23.0 °F 39% 29.71 in 10.0 mi East 8.1 mph - N/A   Overcast
1:15 PM 45.5 °F 40.8 °F 25.9 °F 46% 29.71 in 10.0 mi East 9.2 mph - N/A   Overcast
1:35 PM 43.9 °F 41.3 °F 28.6 °F 55% 29.69 in 10.0 mi East 4.6 mph - N/A   Light Drizzle
1:55 PM 42.6 °F 39.9 °F 31.1 °F 64% 29.67 in 10.0 mi ESE 4.6 mph - N/A   Overcast
2:15 PM 42.3 °F 37.9 °F 30.9 °F 64% 29.66 in 10.0 mi South 6.9 mph - N/A   Overcast
2:35 PM 41.2 °F 37.3 °F 32.4 °F 71% 29.66 in 10.0 mi South 5.8 mph - N/A   Overcast
2:55 PM 40.6 °F - 32.9 °F 74% 29.65 in 10.0 mi Calm Calm - N/A   Light Drizzle
3:15 PM 40.3 °F - 34.0 °F 78% 29.65 in 5.0 mi Calm Calm - N/A Rain Light Rain
3:35 PM 39.2 °F 34.2 °F 34.3 °F 83% 29.65 in 5.0 mi North 6.9 mph - N/A   Light Drizzle
3:55 PM 38.7 °F 33.6 °F 34.9 °F 86% 29.65 in 5.0 mi North 6.9 mph - N/A   Drizzle
4:15 PM 38.7 °F 35.2 °F 35.6 °F 89% 29.64 in 4.0 mi North 4.6 mph - N/A   Overcast
4:35 PM 38.5 °F 35.0 °F 34.7 °F 86% 29.64 in 7.0 mi North 4.6 mph - N/A Rain Light Rain
4:55 PM 38.3 °F 34.8 °F 34.3 °F 86% 29.64 in 7.0 mi NNE 4.6 mph - N/A   Light Drizzle
5:15 PM 38.3 °F 35.9 °F 34.2 °F 85% 29.64 in 5.0 mi North 3.5 mph - N/A Rain Light Rain
5:35 PM 38.1 °F 34.6 °F 34.2 °F 86% 29.64 in 5.0 mi North 4.6 mph - N/A Rain Light Rain
5:55 PM 37.9 °F 34.4 °F 34.7 °F 88% 29.65 in 3.0 mi NNW 4.6 mph - N/A Rain Light Rain
6:15 PM 37.4 °F 32.8 °F 34.7 °F 90% 29.67 in 3.0 mi NNW 5.8 mph - N/A Rain Rain
6:35 PM 37.2 °F 33.6 °F 34.5 °F 90% 29.68 in 2.5 mi NNW 4.6 mph - 0.01 in Rain Rain
6:55 PM 36.1 °F 29.9 °F 33.6 °F 91% 29.69 in 2.5 mi North 8.1 mph - 0.04 in Snow Light Snow
7:15 PM 35.6 °F 31.7 °F 33.3 °F 91% 29.70 in 2.5 mi North 4.6 mph - 0.01 in Snow Light Snow
7:35 PM 35.6 °F - 33.6 °F 92% 29.71 in 2.5 mi Calm Calm - 0.01 in Rain Rain
7:55 PM 35.6 °F - 33.4 °F 92% 29.72 in 2.5 mi Calm Calm - 0.01 in   Drizzle
8:15 PM 35.6 °F 32.8 °F 33.6 °F 92% 29.72 in 2.0 mi WNW 3.5 mph - N/A   Overcast
8:35 PM 35.2 °F 32.4 °F 33.4 °F 93% 29.72 in 2.5 mi WNW 3.5 mph - N/A   Overcast
8:55 PM 34.9 °F 32.0 °F 33.1 °F 93% 29.73 in 2.5 mi NW 3.5 mph - N/A   Overcast
9:15 PM 35.4 °F 32.6 °F 33.6 °F 93% 29.74 in 3.0 mi NNW 3.5 mph - N/A   Overcast
9:35 PM 35.8 °F - 33.8 °F 92% 29.76 in 3.0 mi Calm Calm - N/A   Overcast
9:55 PM 35.4 °F 32.6 °F 33.3 °F 92% 29.76 in 3.0 mi NNW 3.5 mph - N/A   Overcast
10:15 PM 35.2 °F 32.4 °F 33.3 °F 92% 29.77 in 2.5 mi NW 3.5 mph - N/A   Overcast
10:35 PM 34.9 °F - 32.9 °F 92% 29.77 in 2.5 mi Calm Calm - N/A   Overcast
10:55 PM 34.9 °F 32.0 °F 32.9 °F 92% 29.77 in 1.8 mi NNW 3.5 mph - N/A   Overcast
11:15 PM 34.7 °F 30.6 °F 32.9 °F 93% 29.78 in 0.8 mi NNW 4.6 mph - N/A   Overcast
11:35 PM 34.5 °F 31.6 °F 32.9 °F 94% 29.79 in 0.5 mi NW 3.5 mph - N/A Fog Fog
11:55 PM 34.5 °F - 32.9 °F 94% 29.80 in 0.2 mi Calm Calm - N/A Fog Fog